HGB101 VHHH-VHHH

Flight info

Callsign HGB101
Flight time 1h 11m
Altitude FL070
Route MCU BASE TRAINING
Aircraft B738/M-S/N

Departure

Time 2026-05-04 12:43
Airport Hong Kong International Airport (VHHH)

Arrival

Time 2026-05-04 13:54
Airport Hong Kong International Airport (VHHH)
Time Latitude Longitude Altitude Speed Heading
2026-05-04 12:43 22.15383 114.04561 5049 ft 278 kts 257°
2026-05-04 12:43 22.14996 114.02517 5039 ft 278 kts 260°
2026-05-04 12:44 22.14679 114.00463 5038 ft 279 kts 261°
2026-05-04 12:44 22.14341 113.98411 5041 ft 279 kts 259°
2026-05-04 12:44 22.13978 113.96362 5034 ft 279 kts 259°
2026-05-04 12:44 22.13616 113.94311 5038 ft 279 kts 259°
2026-05-04 12:45 22.13262 113.92258 5033 ft 279 kts 259°
2026-05-04 12:45 22.12908 113.90204 5042 ft 279 kts 259°
2026-05-04 12:45 22.12553 113.88154 5036 ft 279 kts 259°
2026-05-04 12:45 22.11986 113.86173 5047 ft 276 kts 238°
2026-05-04 12:46 22.10872 113.84540 5018 ft 266 kts 230°
2026-05-04 12:46 22.09692 113.83009 4711 ft 268 kts 231°
2026-05-04 12:46 22.08556 113.81404 4356 ft 271 kts 233°
2026-05-04 12:46 22.07453 113.79748 4010 ft 273 kts 236°
2026-05-04 12:47 22.06486 113.77992 3676 ft 274 kts 225°
2026-05-04 12:47 22.04922 113.76884 3388 ft 271 kts 207°
2026-05-04 12:47 22.03419 113.75654 3089 ft 274 kts 223°
2026-05-04 12:47 22.02109 113.74208 3016 ft 265 kts 226°
2026-05-04 12:48 22.00892 113.72777 3036 ft 249 kts 226°
2026-05-04 12:48 21.99810 113.71483 3016 ft 218 kts 227°
2026-05-04 12:48 21.98859 113.70335 2994 ft 195 kts 227°
2026-05-04 12:48 21.97957 113.69241 2999 ft 197 kts 227°
2026-05-04 12:49 21.97094 113.68123 2994 ft 194 kts 241°
2026-05-04 12:49 21.96857 113.66719 3005 ft 194 kts 284°
2026-05-04 12:49 21.97576 113.65581 3020 ft 186 kts 335°
2026-05-04 12:49 21.98778 113.65134 3016 ft 184 kts 344°
2026-05-04 12:50 21.99985 113.64670 2876 ft 185 kts 344°
2026-05-04 12:50 22.01194 113.64217 2636 ft 183 kts 344°
2026-05-04 12:50 22.02395 113.63774 2399 ft 183 kts 343°
2026-05-04 12:50 22.03595 113.63333 2151 ft 182 kts 343°
2026-05-04 12:51 22.04770 113.62900 1918 ft 177 kts 343°
2026-05-04 12:51 22.05908 113.62480 1683 ft 165 kts 343°
2026-05-04 12:51 22.06944 113.62096 1472 ft 155 kts 343°
2026-05-04 12:51 22.07964 113.61718 1266 ft 154 kts 342°
2026-05-04 12:52 22.08968 113.61341 1031 ft 151 kts 341°
2026-05-04 12:52 22.09949 113.60967 848 ft 148 kts 342°
2026-05-04 12:52 22.10906 113.60614 685 ft 144 kts 342°
2026-05-04 12:52 22.11876 113.60284 477 ft 147 kts 344°
2026-05-04 12:53 22.12848 113.59935 294 ft 148 kts 341°
2026-05-04 12:53 22.13823 113.59556 80 ft 150 kts 342°
2026-05-04 12:53 22.14740 113.59229 29 ft 123 kts 342°
2026-05-04 12:53 22.15463 113.58956 28 ft 103 kts 340°
2026-05-04 12:54 22.16237 113.58672 32 ft 133 kts 341°
2026-05-04 12:54 22.17157 113.58331 230 ft 143 kts 342°
2026-05-04 12:54 22.18077 113.57996 640 ft 138 kts 342°
2026-05-04 12:54 22.18995 113.57656 869 ft 142 kts 345°
2026-05-04 12:55 22.19975 113.57748 987 ft 146 kts 27°
2026-05-04 12:55 22.20699 113.58506 1140 ft 149 kts 64°
2026-05-04 12:55 22.20886 113.59563 1417 ft 144 kts 98°
2026-05-04 12:55 22.20511 113.60548 1665 ft 144 kts 126°
2026-05-04 12:56 22.19792 113.61281 1861 ft 147 kts 146°
2026-05-04 12:56 22.18788 113.61687 1897 ft 159 kts 163°
2026-05-04 12:56 22.17725 113.62091 1992 ft 167 kts 156°
2026-05-04 12:56 22.16638 113.62554 2098 ft 171 kts 156°
2026-05-04 12:57 22.15521 113.63025 1818 ft 170 kts 156°
2026-05-04 12:57 22.14445 113.63478 1750 ft 168 kts 156°
2026-05-04 12:57 22.13354 113.63944 1698 ft 170 kts 156°
2026-05-04 12:57 22.12276 113.64409 1703 ft 166 kts 156°
2026-05-04 12:58 22.11197 113.64887 1845 ft 170 kts 155°
2026-05-04 12:58 22.10089 113.65297 1730 ft 171 kts 173°
2026-05-04 12:58 22.08972 113.65039 1491 ft 161 kts 208°
2026-05-04 12:58 22.08184 113.64262 1586 ft 153 kts 237°
2026-05-04 12:59 22.07946 113.63146 1454 ft 155 kts 277°
2026-05-04 12:59 22.08373 113.62124 1468 ft 151 kts 313°
2026-05-04 12:59 22.09175 113.61336 1016 ft 157 kts 324°
2026-05-04 12:59 22.10144 113.60955 663 ft 142 kts 348°
2026-05-04 13:00 22.11092 113.60613 633 ft 147 kts 341°
2026-05-04 13:00 22.12074 113.60214 435 ft 152 kts 340°
2026-05-04 13:00 22.13039 113.59836 207 ft 143 kts 343°
2026-05-04 13:00 22.13964 113.59507 46 ft 134 kts 342°
2026-05-04 13:01 22.14744 113.59218 28 ft 106 kts 340°
2026-05-04 13:01 22.15422 113.58967 28 ft 114 kts 341°
2026-05-04 13:01 22.16278 113.58654 71 ft 141 kts 343°
2026-05-04 13:01 22.17236 113.58327 351 ft 147 kts 344°
2026-05-04 13:02 22.18237 113.58004 768 ft 153 kts 344°
2026-05-04 13:02 22.19250 113.57700 1287 ft 151 kts 352°
2026-05-04 13:02 22.20318 113.57923 1489 ft 170 kts 31°
2026-05-04 13:02 22.21112 113.58809 2085 ft 160 kts 65°
2026-05-04 13:03 22.21212 113.60075 2086 ft 194 kts 102°
2026-05-04 13:03 22.20451 113.61338 2079 ft 212 kts 144°
2026-05-04 13:03 22.19145 113.61986 2045 ft 202 kts 159°
2026-05-04 13:03 22.17852 113.62443 1835 ft 190 kts 161°
2026-05-04 13:04 22.16624 113.62859 1557 ft 182 kts 161°
2026-05-04 13:04 22.15472 113.63249 1469 ft 166 kts 161°
2026-05-04 13:04 22.14348 113.63636 1488 ft 176 kts 161°
2026-05-04 13:04 22.13188 113.64045 1480 ft 175 kts 161°
2026-05-04 13:05 22.12031 113.64454 1497 ft 175 kts 161°
2026-05-04 13:05 22.10907 113.64852 1478 ft 168 kts 161°
2026-05-04 13:05 22.09759 113.65007 1310 ft 171 kts 191°
2026-05-04 13:05 22.08862 113.64267 825 ft 164 kts 248°
2026-05-04 13:06 22.08871 113.63111 762 ft 154 kts 293°
2026-05-04 13:06 22.09457 113.62161 789 ft 154 kts 306°
2026-05-04 13:06 22.10069 113.61206 748 ft 156 kts 305°
2026-05-04 13:06 22.10866 113.60480 474 ft 148 kts 346°
2026-05-04 13:07 22.11860 113.60277 339 ft 149 kts 341°
2026-05-04 13:07 22.12834 113.59926 287 ft 153 kts 341°
2026-05-04 13:07 22.13814 113.59554 89 ft 147 kts 343°
2026-05-04 13:07 22.14790 113.59205 94 ft 140 kts 343°
2026-05-04 13:08 22.15628 113.58914 95 ft 123 kts 343°
2026-05-04 13:08 22.16459 113.58648 265 ft 126 kts 346°
2026-05-04 13:08 22.17341 113.58398 475 ft 136 kts 347°
2026-05-04 13:08 22.18309 113.58136 614 ft 153 kts 347°
2026-05-04 13:09 22.19368 113.57973 908 ft 154 kts
2026-05-04 13:09 22.20236 113.58551 1165 ft 155 kts 66°
2026-05-04 13:09 22.20170 113.59683 1470 ft 163 kts 126°
2026-05-04 13:09 22.19234 113.60341 1817 ft 165 kts 158°
2026-05-04 13:10 22.18126 113.60752 1804 ft 171 kts 160°
2026-05-04 13:10 22.16977 113.61143 1537 ft 175 kts 161°
2026-05-04 13:10 22.15825 113.61535 1504 ft 176 kts 161°
2026-05-04 13:10 22.14652 113.61939 1502 ft 177 kts 161°
2026-05-04 13:11 22.13477 113.62351 1496 ft 179 kts 160°
2026-05-04 13:11 22.12298 113.62760 1501 ft 178 kts 161°
2026-05-04 13:11 22.11142 113.63160 1481 ft 169 kts 161°
2026-05-04 13:11 22.09983 113.63292 1330 ft 172 kts 188°
2026-05-04 13:12 22.09063 113.62568 952 ft 169 kts 252°
2026-05-04 13:12 22.09114 113.61367 957 ft 165 kts 299°
2026-05-04 13:12 22.10020 113.60634 780 ft 167 kts 347°
2026-05-04 13:12 22.11144 113.60554 382 ft 152 kts 354°
2026-05-04 13:13 22.12104 113.60218 352 ft 145 kts 336°
2026-05-04 13:13 22.13071 113.59812 220 ft 154 kts 344°
2026-05-04 13:13 22.14101 113.59456 48 ft 153 kts 341°
2026-05-04 13:13 22.14988 113.59133 29 ft 118 kts 340°
2026-05-04 13:14 22.15790 113.58829 28 ft 136 kts 341°
2026-05-04 13:14 22.16760 113.58491 113 ft 155 kts 343°
2026-05-04 13:14 22.17783 113.58145 483 ft 154 kts 343°
2026-05-04 13:14 22.18806 113.57812 827 ft 153 kts 351°
2026-05-04 13:15 22.19766 113.58209 1019 ft 159 kts 54°
2026-05-04 13:15 22.19932 113.59365 1177 ft 168 kts 111°
2026-05-04 13:15 22.19088 113.60249 1282 ft 179 kts 155°
2026-05-04 13:15 22.17893 113.60732 1337 ft 191 kts 160°
2026-05-04 13:16 22.16575 113.61207 1404 ft 208 kts 161°
2026-05-04 13:16 22.15164 113.61712 1501 ft 220 kts 161°
2026-05-04 13:16 22.13690 113.62240 1707 ft 227 kts 161°
2026-05-04 13:16 22.12177 113.62777 1973 ft 231 kts 160°
2026-05-04 13:17 22.10644 113.63309 2265 ft 234 kts 161°
2026-05-04 13:17 22.09109 113.63888 2554 ft 235 kts 157°
2026-05-04 13:17 22.07664 113.64690 2830 ft 234 kts 144°
2026-05-04 13:17 22.06421 113.65804 2991 ft 232 kts 132°
2026-05-04 13:18 22.05442 113.67150 2994 ft 228 kts 120°
2026-05-04 13:18 22.04797 113.68688 2992 ft 225 kts 99°
2026-05-04 13:18 22.04927 113.70338 2992 ft 227 kts 67°
2026-05-04 13:18 22.05888 113.71650 3003 ft 226 kts 36°
2026-05-04 13:19 22.07362 113.72213 3016 ft 231 kts
2026-05-04 13:19 22.08974 113.72129 3010 ft 233 kts 359°
2026-05-04 13:19 22.10588 113.72116 2980 ft 233 kts
2026-05-04 13:19 22.12212 113.72270 2714 ft 236 kts
2026-05-04 13:20 22.13840 113.72462 2465 ft 237 kts
2026-05-04 13:20 22.15483 113.72626 2213 ft 238 kts
2026-05-04 13:20 22.17131 113.72776 2021 ft 237 kts
2026-05-04 13:20 22.18742 113.72927 2013 ft 229 kts
2026-05-04 13:21 22.20287 113.73277 2020 ft 225 kts 26°
2026-05-04 13:21 22.21605 113.74010 2034 ft 199 kts 30°
2026-05-04 13:21 22.22753 113.74704 2034 ft 187 kts 30°
2026-05-04 13:21 22.23893 113.75371 2015 ft 186 kts 29°
2026-05-04 13:22 22.24972 113.76109 2021 ft 184 kts 46°
2026-05-04 13:22 22.25608 113.77283 2037 ft 183 kts 71°
2026-05-04 13:22 22.26017 113.78580 2033 ft 183 kts 72°
2026-05-04 13:22 22.26432 113.79880 1947 ft 186 kts 71°
2026-05-04 13:23 22.26841 113.81155 1710 ft 169 kts 71°
2026-05-04 13:23 22.27197 113.82259 1483 ft 148 kts 72°
2026-05-04 13:23 22.27533 113.83305 1307 ft 148 kts 72°
2026-05-04 13:23 22.27869 113.84351 1128 ft 151 kts 72°
2026-05-04 13:24 22.28229 113.85475 920 ft 159 kts 72°
2026-05-04 13:24 22.28574 113.86546 703 ft 146 kts 72°
2026-05-04 13:24 22.28907 113.87584 518 ft 146 kts 72°
2026-05-04 13:25 22.29565 113.89632 137 ft 144 kts 72°
2026-05-04 13:25 22.29873 113.90613 33 ft 123 kts 72°
2026-05-04 13:25 22.30101 113.91316 33 ft 84 kts 69°
2026-05-04 13:25 22.30348 113.92062 34 ft 133 kts 71°
2026-05-04 13:26 22.30688 113.93139 209 ft 158 kts 72°
2026-05-04 13:26 22.31026 113.94248 751 ft 154 kts 72°
2026-05-04 13:26 22.31380 113.95312 1338 ft 146 kts 70°
2026-05-04 13:26 22.31725 113.96333 1827 ft 148 kts 71°
2026-05-04 13:27 22.32075 113.97419 2237 ft 160 kts 71°
2026-05-04 13:27 22.32457 113.98605 2740 ft 175 kts 71°
2026-05-04 13:27 22.32876 113.99910 3359 ft 192 kts 71°
2026-05-04 13:27 22.33333 114.01327 4046 ft 209 kts 71°
2026-05-04 13:28 22.33748 114.02901 4694 ft 228 kts 86°
2026-05-04 13:28 22.33480 114.04627 5013 ft 243 kts 116°
2026-05-04 13:28 22.32339 114.06120 5047 ft 278 kts 144°
2026-05-04 13:28 22.30559 114.06940 5028 ft 282 kts 172°
2026-05-04 13:29 22.28605 114.06842 5026 ft 285 kts 191°
2026-05-04 13:29 22.26668 114.06380 5010 ft 286 kts 191°
2026-05-04 13:29 22.24703 114.06057 5011 ft 287 kts 183°
2026-05-04 13:29 22.22712 114.06034 5011 ft 287 kts 178°
2026-05-04 13:30 22.20727 114.06151 5010 ft 286 kts 174°
2026-05-04 13:30 22.18740 114.06300 5007 ft 287 kts 183°
2026-05-04 13:30 22.16837 114.05719 5017 ft 288 kts 210°
2026-05-04 13:30 22.15368 114.04277 5017 ft 289 kts 237°
2026-05-04 13:31 22.14653 114.02292 5016 ft 282 kts 263°
2026-05-04 13:31 22.14578 114.00232 5003 ft 269 kts 271°
2026-05-04 13:31 22.14554 113.98257 4988 ft 259 kts 265°
2026-05-04 13:31 22.14294 113.96383 4991 ft 248 kts 257°
2026-05-04 13:32 22.13905 113.94610 4986 ft 240 kts 257°
2026-05-04 13:32 22.13550 113.92867 4988 ft 238 kts 259°
2026-05-04 13:32 22.13233 113.91125 4987 ft 237 kts 259°
2026-05-04 13:32 22.12918 113.89385 4996 ft 237 kts 259°
2026-05-04 13:33 22.12593 113.87649 4995 ft 236 kts 258°
2026-05-04 13:33 22.12268 113.85917 4992 ft 237 kts 259°
2026-05-04 13:33 22.11945 113.84182 4996 ft 236 kts 259°
2026-05-04 13:33 22.11623 113.82452 4992 ft 236 kts 259°
2026-05-04 13:34 22.11299 113.80719 4991 ft 236 kts 259°
2026-05-04 13:34 22.10975 113.78987 4994 ft 236 kts 258°
2026-05-04 13:34 22.10630 113.77263 4992 ft 235 kts 251°
2026-05-04 13:34 22.09771 113.75802 5017 ft 235 kts 218°
2026-05-04 13:35 22.08315 113.75066 5018 ft 234 kts 185°
2026-05-04 13:35 22.05281 113.76041 5016 ft 231 kts 151°
2026-05-04 13:35 22.04014 113.77069 5022 ft 230 kts 124°
2026-05-04 13:36 22.03425 113.78645 5022 ft 230 kts 93°
2026-05-04 13:36 22.03684 113.80314 5022 ft 229 kts 62°
2026-05-04 13:36 22.04711 113.81589 5016 ft 229 kts 30°
2026-05-04 13:36 22.06213 113.82096 5028 ft 230 kts 359°
2026-05-04 13:37 22.07752 113.81666 5029 ft 232 kts 327°
2026-05-04 13:37 22.08847 113.80417 5025 ft 234 kts 295°
2026-05-04 13:37 22.09502 113.78813 5010 ft 234 kts 302°
2026-05-04 13:37 22.10187 113.77926 5029 ft 232 kts 324°
2026-05-04 13:38 22.12183 113.77254 5022 ft 230 kts
2026-05-04 13:38 22.13652 113.77865 5027 ft 229 kts 40°
2026-05-04 13:38 22.14605 113.79210 5023 ft 229 kts 71°
2026-05-04 13:38 22.14768 113.80888 5023 ft 229 kts 102°
2026-05-04 13:39 22.14089 113.82418 5024 ft 230 kts 133°
2026-05-04 13:39 22.12778 113.83391 5025 ft 232 kts 153°
2026-05-04 13:39 22.11298 113.84139 4773 ft 237 kts 155°
2026-05-04 13:39 22.09794 113.84870 4511 ft 239 kts 154°
2026-05-04 13:40 22.08285 113.85630 4258 ft 241 kts 153°
2026-05-04 13:40 22.06746 113.86350 3987 ft 243 kts 165°
2026-05-04 13:40 22.05071 113.86353 3780 ft 245 kts 196°
2026-05-04 13:40 22.03622 113.85413 3549 ft 247 kts 228°
2026-05-04 13:41 22.02819 113.83798 3330 ft 248 kts 260°
2026-05-04 13:41 22.02899 113.81977 3108 ft 245 kts 292°
2026-05-04 13:41 22.03831 113.80509 3008 ft 234 kts 327°
2026-05-04 13:42 22.06799 113.79468 3008 ft 226 kts 346°
2026-05-04 13:42 22.08273 113.78877 3008 ft 228 kts 338°
2026-05-04 13:42 22.09691 113.78122 3010 ft 227 kts 336°
2026-05-04 13:42 22.11116 113.77400 3005 ft 226 kts 348°
2026-05-04 13:43 22.12640 113.77363 3012 ft 220 kts 20°
2026-05-04 13:43 22.13937 113.78154 3015 ft 215 kts 49°
2026-05-04 13:43 22.14688 113.79517 3022 ft 214 kts 76°
2026-05-04 13:43 22.14718 113.81102 3020 ft 215 kts 104°
2026-05-04 13:44 22.14007 113.82510 3017 ft 219 kts 134°
2026-05-04 13:44 22.12729 113.83410 3012 ft 223 kts 151°
2026-05-04 13:44 22.11321 113.84119 3005 ft 224 kts 153°
2026-05-04 13:44 22.09913 113.84813 3012 ft 223 kts 152°
2026-05-04 13:45 22.08508 113.85522 3011 ft 224 kts 152°
2026-05-04 13:45 22.07100 113.86227 3009 ft 224 kts 156°
2026-05-04 13:45 22.05562 113.86417 3017 ft 230 kts 190°
2026-05-04 13:45 22.04131 113.85672 3015 ft 234 kts 223°
2026-05-04 13:46 22.03276 113.84196 3023 ft 236 kts 257°
2026-05-04 13:46 22.03283 113.82453 3016 ft 234 kts 291°
2026-05-04 13:46 22.04145 113.81019 3026 ft 229 kts 324°
2026-05-04 13:46 22.05509 113.80168 3009 ft 227 kts 338°
2026-05-04 13:47 22.06940 113.79469 3009 ft 226 kts 339°
2026-05-04 13:47 22.08367 113.78768 3012 ft 227 kts 338°
2026-05-04 13:47 22.09801 113.78053 3003 ft 226 kts 344°
2026-05-04 13:47 22.11268 113.77474 3006 ft 225 kts 347°
2026-05-04 13:48 22.12734 113.76902 3011 ft 226 kts 339°
2026-05-04 13:48 22.14164 113.76185 2988 ft 228 kts 337°
2026-05-04 13:48 22.15602 113.75436 2739 ft 231 kts 336°
2026-05-04 13:48 22.17046 113.74649 2491 ft 233 kts 335°
2026-05-04 13:49 22.18492 113.73853 2254 ft 234 kts 335°
2026-05-04 13:49 22.19953 113.73073 2034 ft 235 kts 335°
2026-05-04 13:49 22.21399 113.72308 2007 ft 230 kts 335°
2026-05-04 13:49 22.22916 113.71832 2033 ft 228 kts
2026-05-04 13:50 22.24369 113.72383 2023 ft 227 kts 44°
2026-05-04 13:50 22.25117 113.73827 2021 ft 223 kts 80°
2026-05-04 13:50 22.25317 113.75446 2035 ft 209 kts 83°
2026-05-04 13:50 22.25545 113.76905 2008 ft 190 kts 79°
2026-05-04 13:51 22.25894 113.78266 2013 ft 185 kts 72°
2026-05-04 13:51 22.26321 113.79559 2003 ft 184 kts 70°
2026-05-04 13:51 22.26751 113.80852 1774 ft 178 kts 71°
2026-05-04 13:51 22.27129 113.82039 1533 ft 155 kts 72°
2026-05-04 13:52 22.27802 113.84142 1158 ft 148 kts 72°
2026-05-04 13:52 22.28136 113.85181 967 ft 146 kts 72°
2026-05-04 13:52 22.28468 113.86213 775 ft 146 kts 72°
2026-05-04 13:53 22.28798 113.87243 584 ft 145 kts 72°
2026-05-04 13:53 22.29127 113.88268 392 ft 145 kts 72°
2026-05-04 13:53 22.29457 113.89292 202 ft 145 kts 72°
2026-05-04 13:54 22.30056 113.91160 32 ft 95 kts 71°
2026-05-04 13:54 22.30231 113.91704 32 ft 63 kts 70°
2026-05-04 13:54 22.30572 113.92193 31 ft 17 kts 33°
2026-05-04 13:55 22.30672 113.92171 32 ft 15 kts 333°
2026-05-04 13:55 22.30779 113.92063 33 ft 10 kts 295°
2026-05-04 13:55 22.30835 113.92023 33 ft 10 kts 342°
2026-05-04 13:56 22.30904 113.91998 33 ft 11 kts 341°
2026-05-04 13:56 22.30974 113.91971 33 ft 11 kts 341°
2026-05-04 13:56 22.31123 113.91916 33 ft 12 kts 341°
2026-05-04 13:57 22.31201 113.91887 33 ft 12 kts 341°
2026-05-04 13:57 22.31277 113.91853 33 ft 11 kts 316°
2026-05-04 13:58 22.31261 113.91756 33 ft 0 kts 251°